OBJECT G

Satellite information

Favourite Embed

Satellite Type and Status

UNKNOWNIN ORBIT

Key statistics

Satellite OBJECT G at a glance.

Uptime

772

Days in orbit

Revolutions

≈ 15.3

Per day

Orbit

SSO

Sun Synchronous Orbit

Inclination

97.5

Latest

Satellite identification and parameters

Extended collection of information and parameters for OBJECT G.

Object identification

Identified? True

Debris? False

Object name: OBJECT G

International designator: 2023-072G

Object number (NORAD): 56749

Object ID (CCSDS): 56749

Country: SOUTH KOREA (SKOR)

Current information (Y/N): Y

RCS size: MEDIUM

Orbital parameters

Period: 93.982 minutes

Inclination: 97.5196 deg

SMA: 6847.339 km

Apoapsis: 473.899 km

Periapsis: 464.509 km

RAAN: 19.4393 deg

Eccentricy: 0.0006857

Argument of periapsis: 141.8981 deg

Mean anomaly: 218.2746 deg

Mean motion: 15.32216171 rev/day

Mean motion (dot): 0.0001257 rev/day2

B* drag term: 0.0004062 1/REarth

Two-line elements (TLE)

Creation date: July 4, 2025, 10:16 p.m.

Reference frame: TEME

Reference center: EARTH

Epoch: July 4, 2025, 8:07 p.m. UTC

TLE line 0: 0 OBJECT G

TLE line 1: 1 56749U 23072G 25185.83839524 .00012570 00000-0 40620-3 0 9998

TLE line 2: 2 56749 97.5196 19.4393 0006857 141.8981 218.2746 15.32216171116981

Live tracking on map

Real-time ground track for satellite OBJECT G.

In-orbit conjunctions

There are no conjunctions computed for OBJECT G, at the moment. Check back to stay up to date, as we update our databases every day.

Go to all conjunctions

Associated space launch

Third flight of the KSLV-II "Nuri" launch vehicle, carrying NEXTSat-2 as well as SNIPE A through D.

OBJECT G was lifted into orbit during the mission ‘Nuri | NEXTSat-2 & SNIPE’, on board a Nuri space rocket.

The launch took place on May 25, 2023, 9:24 a.m. from LC-2.

For more information about the launch, click the button.

Launch to space Nuri | NEXTSat-2 & SNIPE
Nuri | NEXTSat-2 & SNIPE

Agency: N/A

Status: Launch Successful

Launch date: May 25, 2023, 9:24 a.m. UTC

Rocket: Nuri

Launch pad: LC-2

Location: Naro Space Center, South Korea

...

Latest news about this satellite

News about space launch
South Korea’s KSLV-2 rocket launches seven satellites, one unaccounted for

South Korea’s KSLV-2 rocket put seven satellites, including one equipped with synthetic aperture radar, into sun-synchronous orbit May 25, although an eighth cubesat is believed to have not deployed properly.

News about space launch
South Korea’s KSLV-2 rocket set to launch May 24

South Korea’s homegrown KSLV-2 rocket is slated to launch May 24, carrying a 180-kilogram technology demonstration satellite and seven cubesats.


Newsletter sign-up

Weekly statistics, charts and insights to help you stay on top of the space industry.